Total_Precipitation_Accumulation
2.48 2.39 2.89 3.86 4.42 3.89 3.46 2.75 2.36 2.23 1.88 1.47 1.14 1.13 1.41 1.83 2.27 2.66 2.94 2.79 1.95 1.53 1.61 2.39 3.04 2.76 2.27 1.95 1.80 1.79 1.72 1.79 1.72 1.71 1.52 1.41 1.30 1.19 1.02 0.92 0.99 0.96 0.89 0.83 0.79 0.87 0.89 0.90 1.08
1.82 2.67 3.51 4.43 4.00 3.32 3.18 2.75 2.53 2.10 1.52 1.20 0.88 0.82 0.94 1.00 1.03 1.61 2.78 2.72 1.74 1.41 1.50 1.83 2.54 2.43 2.02 1.81 1.77 1.84 1.81 1.91 1.83 1.69 1.46 1.35 1.35 1.30 1.15 1.07 1.16 1.00 0.88 0.83 0.83 0.90 0.99 0.96 1.08
1.95 3.07 4.06 4.29 3.15 2.86 2.99 2.78 2.32 1.73 1.24 1.14 0.92 0.81 1.00 1.23 1.31 1.86 2.55 1.98 1.49 1.38 1.48 2.00 2.54 2.28 1.98 1.77 1.85 1.92 1.92 1.95 1.77 1.55 1.32 1.33 1.36 1.34 1.31 1.28 1.23 1.00 0.92 0.85 0.85 0.92 0.95 0.96 1.00
2.28 3.40 3.70 3.42 2.79 2.39 2.44 2.44 1.94 1.57 1.20 0.87 0.86 0.88 0.91 1.28 1.34 1.63 1.70 1.42 1.27 1.39 1.49 1.89 2.38 2.21 1.97 1.78 1.88 1.95 2.03 2.03 1.90 1.63 1.35 1.32 1.33 1.31 1.28 1.32 1.19 1.06 0.97 0.88 0.87 0.91 0.95 0.95 0.97
2.70 3.53 3.47 3.01 2.67 2.35 2.03 1.73 1.53 1.44 1.20 0.93 0.81 1.01 1.34 1.68 1.49 1.42 1.38 1.30 1.15 1.27 1.31 1.54 2.10 2.12 1.95 1.86 2.06 2.11 2.13 2.17 2.11 1.79 1.56 1.43 1.35 1.32 1.35 1.38 1.24 1.16 1.08 1.02 1.00 1.00 1.00 0.97 1.02
3.03 3.12 3.32 2.93 2.62 2.39 2.28 1.68 1.48 1.40 1.10 0.91 0.86 1.08 1.72 2.02 1.71 1.51 1.36 1.43 1.38 1.37 1.29 1.27 1.82 2.02 1.96 1.97 2.06 2.08 2.09 2.09 2.09 1.86 1.68 1.52 1.38 1.31 1.41 1.46 1.30 1.22 1.09 1.04 1.05 1.08 1.12 1.09 1.07
2.96 3.05 3.07 2.52 2.55 2.75 2.39 1.70 1.53 1.34 1.23 1.00 0.78 1.17 1.80 2.13 1.79 1.51 1.43 1.48 1.57 1.53 1.47 1.32 1.43 1.69 1.95 2.01 1.93 1.91 1.89 1.92 2.00 1.78 1.65 1.49 1.36 1.25 1.31 1.36 1.26 1.23 1.21 1.19 1.16 1.23 1.23 1.11 1.11
2.18 2.49 2.54 2.46 2.58 2.81 2.08 1.57 1.25 1.15 1.11 0.86 0.72 1.13 1.62 1.63 1.53 1.50 1.61 1.77 1.91 1.72 1.59 1.38 1.32 1.39 1.46 1.64 1.80 1.92 1.94 1.92 1.97 1.74 1.56 1.44 1.32 1.18 1.21 1.16 1.16 1.26 1.33 1.40 1.40 1.40 1.33 1.28 1.18
1.99 2.62 2.90 2.87 2.58 2.20 1.45 1.32 1.13 0.90 0.97 0.87 0.70 0.74 0.93 1.02 1.18 1.40 1.49 1.63 1.73 1.48 1.40 1.45 1.44 1.44 1.47 1.42 1.49 1.76 1.87 1.88 1.76 1.68 1.57 1.38 1.08 0.93 0.99 1.00 1.24 1.37 1.48 1.56 1.59 1.55 1.52 1.37 1.17
2.06 2.77 2.76 2.19 1.91 1.60 1.15 1.12 1.01 1.01 1.07 1.00 0.79 0.75 0.86 0.94 1.16 1.33 1.28 1.32 1.27 1.17 1.15 1.24 1.26 1.38 1.42 1.29 1.50 1.77 1.63 1.54 1.30 1.32 1.19 1.17 1.07 0.98 0.82 0.95 1.30 1.44 1.48 1.48 1.55 1.63 1.46 1.17 0.87
1.67 2.16 1.95 1.73 1.51 1.24 1.07 1.11 0.98 1.01 1.16 1.02 0.82 0.82 1.03 1.11 1.13 1.11 1.08 1.11 1.04 0.99 0.98 0.96 1.00 1.07 1.19 1.35 1.59 1.88 1.94 1.75 1.53 1.27 1.18 1.18 1.07 0.95 0.87 0.87 1.00 1.12 1.15 1.04 1.08 1.11 0.99 0.90 0.80
1.43 1.41 1.42 1.62 1.38 1.28 1.06 1.02 1.05 1.01 1.04 0.91 0.75 0.76 0.94 1.12 1.18 1.05 0.90 0.84 0.78 0.84 0.95 0.79 0.68 0.83 1.00 1.13 1.25 1.52 1.59 1.53 1.41 1.19 1.10 1.18 1.15 1.01 0.99 0.97 1.00 1.01 1.00 1.04 1.03 1.07 1.04 0.86 0.76
1.71 1.47 1.27 1.26 1.27 1.34 1.13 1.05 1.04 1.02 0.91 0.81 0.76 0.87 0.94 0.96 0.99 0.94 0.79 0.69 0.71 0.82 0.90 0.81 0.70 0.68 0.75 0.82 0.92 1.07 1.24 1.32 1.33 1.26 1.08 1.09 1.14 1.09 1.09 1.04 1.06 0.95 0.90 0.97 1.02 1.05 1.08 0.98 0.84
1.52 1.35 1.34 1.33 1.26 1.27 1.29 1.04 1.02 1.21 0.93 0.83 0.89 0.97 0.93 0.88 0.88 0.95 0.85 0.75 0.68 0.71 0.84 0.83 0.74 0.71 0.73 0.70 0.71 0.73 0.88 1.05 1.17 1.20 1.10 1.12 1.16 1.12 1.18 1.13 1.08 1.02 0.93 0.96 1.14 1.09 1.12 1.10 1.02
1.41 1.56 1.50 1.41 1.31 1.31 1.27 1.36 1.24 1.16 0.98 0.92 0.98 0.94 0.90 0.85 0.84 0.92 0.85 0.75 0.67 0.67 0.74 0.80 0.79 0.82 0.83 0.79 0.77 0.65 0.70 0.80 0.95 1.08 1.08 1.15 1.11 1.05 1.11 1.12 1.06 1.04 1.04 1.05 1.10 1.11 1.16 1.07 0.99
1.71 1.87 1.96 1.66 1.43 1.24 1.27 1.65 1.51 1.25 1.04 1.06 1.02 0.92 0.88 0.84 0.79 0.83 0.79 0.78 0.74 0.75 0.80 0.85 0.85 0.88 0.91 0.93 0.92 0.84 0.88 0.95 1.00 1.14 1.10 1.08 1.15 1.12 1.11 1.14 1.12 1.15 1.19 1.17 1.19 1.24 1.22 1.15 1.14
1.89 1.89 1.75 1.61 1.32 1.10 1.14 1.40 1.41 1.28 1.05 0.93 0.92 0.85 0.75 0.66 0.61 0.60 0.59 0.61 0.67 0.69 0.74 0.79 0.86 0.88 0.90 0.94 1.02 1.14 1.19 1.19 1.18 1.23 1.17 1.10 1.13 1.19 1.30 1.33 1.35 1.31 1.33 1.32 1.28 1.31 1.21 1.20 1.21
1.81 1.52 1.32 1.26 1.18 1.04 0.95 1.04 1.10 1.12 0.98 0.79 0.70 0.67 0.65 0.56 0.51 0.45 0.43 0.45 0.52 0.58 0.63 0.70 0.79 0.95 1.06 1.12 1.12 1.28 1.32 1.39 1.47 1.50 1.36 1.23 1.28 1.41 1.60 1.69 1.59 1.56 1.56 1.55 1.51 1.56 1.44 1.31 1.33
1.33 1.29 1.17 0.99 0.95 0.98 0.88 0.86 0.90 0.89 0.86 0.74 0.60 0.49 0.48 0.47 0.44 0.42 0.38 0.39 0.43 0.46 0.51 0.59 0.68 0.86 0.96 1.01 1.12 1.31 1.47 1.64 1.79 1.88 1.76 1.59 1.56 1.74 1.88 1.81 1.89 1.90 1.78 1.80 1.87 1.91 1.87 1.66 1.51
1.15 1.18 1.04 0.89 0.76 0.76 0.76 0.79 0.80 0.75 0.74 0.63 0.51 0.43 0.36 0.30 0.30 0.27 0.25 0.27 0.28 0.30 0.34 0.42 0.52 0.60 0.75 0.91 1.16 1.36 1.64 1.71 1.80 1.92 1.96 1.87 1.80 1.99 2.02 2.08 2.18 2.20 2.20 2.15 2.05 2.18 2.32 2.04 1.78
0.95 1.01 0.92 0.84 0.72 0.66 0.64 0.79 0.77 0.71 0.67 0.58 0.46 0.38 0.29 0.23 0.20 0.16 0.16 0.19 0.24 0.23 0.24 0.32 0.44 0.57 0.80 1.04 1.37 1.66 1.92 2.00 2.06 2.00 2.02 2.08 2.12 2.20 2.24 2.28 2.34 2.36 2.19 2.19 2.30 2.44 2.79 2.59 2.20
0.93 0.68 0.63 0.63 0.74 0.75 0.63 0.92 0.69 0.57 0.57 0.52 0.44 0.40 0.32 0.24 0.19 0.16 0.16 0.17 0.19 0.23 0.28 0.40 0.58 0.78 1.04 1.36 1.75 2.02 2.26 2.38 2.22 2.16 2.16 2.15 2.11 2.15 2.27 2.27 2.25 2.23 2.16 2.22 2.28 2.34 2.77 2.97 2.67
0.64 0.54 0.62 0.64 0.66 0.59 0.44 0.62 0.59 0.47 0.53 0.45 0.38 0.38 0.37 0.31 0.24 0.21 0.22 0.24 0.28 0.37 0.45 0.62 0.89 1.19 1.46 1.69 1.88 2.11 2.25 2.27 2.22 2.15 2.14 2.06 2.02 2.01 2.03 2.03 2.13 2.16 2.20 2.26 2.41 2.54 2.81 2.83 2.82
0.47 0.56 0.69 0.70 0.72 0.75 0.39 0.49 0.59 0.46 0.44 0.40 0.36 0.34 0.30 0.29 0.29 0.29 0.31 0.39 0.46 0.54 0.69 0.88 1.08 1.38 1.56 1.69 1.79 1.95 2.10 2.16 2.15 2.12 2.12 2.13 2.09 1.99 1.91 1.86 1.93 2.06 2.21 2.26 2.36 2.52 2.76 2.86 2.94
0.46 0.76 1.09 1.12 1.06 0.79 0.37 0.53 0.62 0.46 0.36 0.32 0.33 0.32 0.29 0.34 0.39 0.40 0.50 0.64 0.71 0.76 0.86 1.03 1.13 1.33 1.44 1.49 1.59 1.72 1.78 1.82 1.85 1.85 1.83 1.75 1.72 1.72 1.75 1.81 1.88 2.02 2.12 2.19 2.31 2.46 2.51 2.62 2.85
0.40 0.63 1.05 1.15 0.99 0.70 0.50 0.74 0.67 0.44 0.36 0.33 0.33 0.31 0.34 0.45 0.55 0.66 0.80 0.89 0.96 0.99 0.97 1.01 1.16 1.21 1.20 1.25 1.25 1.35 1.44 1.50 1.54 1.51 1.51 1.55 1.59 1.61 1.57 1.60 1.67 1.88 2.07 2.15 2.24 2.26 2.24 2.29 2.47
0.39 0.44 0.50 0.72 0.67 0.71 0.66 0.83 0.77 0.46 0.39 0.34 0.34 0.36 0.43 0.59 0.80 1.02 1.20 1.30 1.38 1.32 1.15 1.03 1.03 1.02 1.01 1.11 1.17 1.21 1.27 1.31 1.31 1.32 1.26 1.35 1.39 1.40 1.36 1.39 1.41 1.53 1.75 1.99 2.14 2.09 2.01 1.97 2.13
0.33 0.43 0.57 0.84 1.02 0.98 0.86 0.96 0.94 0.66 0.54 0.45 0.46 0.56 0.71 0.92 1.22 1.49 1.73 1.84 1.81 1.63 1.39 1.13 0.98 0.92 0.90 0.97 1.07 1.15 1.15 1.15 1.13 1.14 1.07 1.11 1.20 1.20 1.17 1.17 1.24 1.38 1.51 1.70 1.92 2.01 1.94 1.93 1.98
0.36 0.51 0.65 0.84 0.90 1.14 1.27 1.24 0.99 0.88 0.77 0.74 0.81 0.97 1.18 1.45 1.65 1.81 1.98 2.03 1.76 1.59 1.36 1.10 0.95 0.96 0.98 1.03 1.07 1.09 1.05 1.02 1.01 0.97 0.91 0.96 1.02 0.99 1.00 1.16 1.22 1.28 1.37 1.57 1.83 2.00 2.01 1.94 1.94
0.46 0.67 0.88 1.23 1.14 1.07 1.29 1.32 0.94 0.87 0.91 0.95 1.07 1.12 1.24 1.40 1.43 1.52 1.60 1.56 1.52 1.47 1.29 1.12 1.04 1.03 1.08 1.11 1.16 1.10 1.01 0.96 0.96 0.93 0.84 0.82 0.78 0.76 0.86 0.98 1.02 1.07 1.11 1.30 1.58 1.77 1.82 1.81 1.73